Flag for USA

Past Weather in 42°22'57"N, 83°25'56"W, USA — Yesterday and Last 2 Weeks

Now
48 °F

Clear.


Feels Like: 48 °F
Forecast: 67 / 49 °F
Wind: No wind

Location: Detroit City Airport
Current Time: Sep 21, 2020 at 5:44:55 am
Latest Report: Sep 21, 2020 at 4:53 am
Visibility: 10 mi
Pressure30.46 "Hg
Humidity: 83%
Dew Point: 43 °F
Location of 42°22'57"N, 83°25'56"WLocation

Past Weather in 42°22'57"N, 83°25'56"W — Graph

°F

42°22'57"N, 83°25'56"W Temperature Yesterday

Maximum temperature yesterday: 65 °F (at 1:53 pm)
Minimum temperature yesterday: 45 °F (at 4:53 am)
Average temperature yesterday: 55 °F

High & Low Weather Summary for the Past Weeks

 TemperatureHumidityPressure
High80 °F (Sep 7, 12:53 pm)97% (Sep 8, 9:35 am)30.54 "Hg (Sep 8, 9:35 am)
Low39 °F (Sep 19, 6:53 am)25% (Sep 19, 5:53 pm)29.70 "Hg (Sep 7, 3:03 am)
Average62 °F72%30.18 "Hg
* Reported Sep 6 3:53 am — Sep 21 3:53 am, 42°22'57"N, 83°25'56"W. Weather by CustomWeather, © 2020

Note: Actual official high and low records may vary slightly from our data, if they occured in-between our weather recording intervals... More about our weather records

42°22'57"N, 83°25'56"W Weather History for the Previous 24 Hours

Scroll right to see more
 ConditionsComfort  
Time TempWeatherWind HumidityBarometerVisibility
3:53 am
Mon, Sep 21
49 °FClear.No wind86%30.47 "Hg10 mi
2:53 am51 °FClear.No wind80%30.47 "Hg10 mi
1:53 am50 °FClear.3 mph77%30.48 "Hg10 mi
12:53 am54 °FClear.No wind69%30.48 "Hg10 mi
11:53 pm
Sun, Sep 20
55 °FClear.3 mph64%30.49 "Hg10 mi
10:53 pm55 °FClear.6 mph62%30.49 "Hg10 mi
9:53 pm56 °FClear.7 mph55%30.50 "Hg10 mi
7:53 pm58 °FClear.6 mph47%30.49 "Hg10 mi
6:53 pm61 °FSunny.12 mph44%30.49 "Hg10 mi
5:53 pm63 °FSunny.12 mph47%30.49 "Hg10 mi
4:53 pm64 °FSunny.13 mph45%30.50 "Hg10 mi
3:53 pm65 °FSunny.10 mph44%30.50 "Hg10 mi
2:53 pm65 °FSunny.14 mph44%30.51 "Hg10 mi
1:53 pm65 °FSunny.10 mph44%30.52 "Hg10 mi
12:53 pm63 °FSunny.12 mph52%30.53 "Hg10 mi
11:53 am62 °FSunny.10 mph52%30.54 "Hg10 mi
10:53 am61 °FSunny.14 mph50%30.53 "Hg10 mi
9:53 am59 °FSunny.12 mph58%30.52 "Hg10 mi
8:53 am52 °FSunny.3 mph75%30.50 "Hg10 mi
7:53 am45 °FSunny.No wind86%30.49 "Hg10 mi
6:53 am45 °FClear.No wind82%30.47 "Hg10 mi
5:53 am45 °FClear.3 mph82%30.45 "Hg10 mi
Weather by CustomWeather, © 2020

See weather overview